Location: Poprad
(49.0500°N, 20.3000°E)
Time: 11:13:48
(UTC+01:00)

ISS - Pass Details

Date: 24 January 2021
Orbit: 417 x 422 km, 51.6° (Epoch: 07 March)

Event Time Altitude Azimuth Distance (km) Brightness Sun altitude
Rises 18:45:10 0° 267° (W) 2,371 1.6 -23.0°
Reaches altitude 10° 18:47:18 10° 271° (W) 1,507 0.2 -23.4°
Enters shadow 18:49:44 40° 296° (WNW) 635 -2.5 -23.8°
